Time,TemperatureF,DewpointF,PressureIn,WindDirection,WindDirectionDegrees,WindSpeedMPH,WindSpeedGustMPH,Humidity,HourlyPrecipIn,Conditions,Clouds,dailyrainin,SoftwareType,DateUTC
2013-02-09 00:00:00,18.6,3.0,30.33,NNW,348,9.2,0.0,50,0.00,CLR,OVC,0.00,WeatherDisplay:10.37,2013-02-09 05:00:00,
2013-02-09 00:01:00,18.6,3.0,30.33,NNW,348,9.2,9.2,50,0.00,BKN,OVC,0.00,WeatherDisplay:10.37,2013-02-09 05:01:00,
2013-02-09 00:06:00,18.5,2.9,30.33,North,0,9.2,9.2,50,0.00,BKN,OVC,0.00,WeatherDisplay:10.37,2013-02-09 05:06:00,
2013-02-09 00:11:00,18.5,2.9,30.33,North,5,6.9,6.9,50,0.00,BKN,OVC,0.00,WeatherDisplay:10.37,2013-02-09 05:11:00,
2013-02-09 00:16:00,18.6,3.0,30.33,North,351,13.8,13.8,50,0.00,BKN,OVC,0.00,WeatherDisplay:10.37,2013-02-09 05:16:00,
2013-02-09 00:21:00,18.7,3.1,30.33,North,0,11.5,11.5,50,0.00,BKN,OVC,0.00,WeatherDisplay:10.37,2013-02-09 05:21:00,
2013-02-09 00:26:00,18.8,3.2,30.33,NNW,340,12.7,12.7,50,0.00,BKN,OVC,0.00,WeatherDisplay:10.37,2013-02-09 05:26:00,
2013-02-09 00:31:00,18.8,3.2,30.33,NNW,342,11.5,11.5,50,0.00,BKN,OVC,0.00,WeatherDisplay:10.37,2013-02-09 05:31:00,
2013-02-09 00:36:00,18.8,3.2,30.33,NNW,343,10.4,10.4,50,0.00,BKN,OVC,0.00,WeatherDisplay:10.37,2013-02-09 05:36:00,
2013-02-09 00:41:00,18.8,3.2,30.33,NNW,345,11.5,11.5,50,0.00,BKN,OVC,0.00,WeatherDisplay:10.37,2013-02-09 05:41:00,
2013-02-09 00:46:00,18.7,3.1,30.33,NNW,334,11.5,11.5,50,0.00,BKN,OVC,0.00,WeatherDisplay:10.37,2013-02-09 05:46:00,
2013-02-09 00:51:00,18.7,3.1,30.33,NNW,333,11.5,11.5,50,0.00,BKN,OVC,0.00,WeatherDisplay:10.37,2013-02-09 05:51:00,
2013-02-09 00:56:00,18.8,3.2,30.33,NNW,328,13.8,13.8,50,0.00,BKN,OVC,0.00,WeatherDisplay:10.37,2013-02-09 05:56:00,
2013-02-09 01:01:00,18.7,3.1,30.33,NNW,327,13.8,13.8,50,0.00,BKN,OVC,0.00,WeatherDisplay:10.37,2013-02-09 06:01:00,
2013-02-09 01:06:00,18.5,2.9,30.33,North,352,12.7,12.7,50,0.00,BKN,OVC,0.00,WeatherDisplay:10.37,2013-02-09 06:06:00,
2013-02-09 01:11:00,18.5,2.9,30.33,NNW,336,12.7,12.7,50,0.00,BKN,OVC,0.00,WeatherDisplay:10.37,2013-02-09 06:11:00,
2013-02-09 01:16:00,18.6,3.0,30.33,NNW,336,4.6,4.6,50,0.00,BKN,OVC,0.00,WeatherDisplay:10.37,2013-02-09 06:16:00,
2013-02-09 01:21:00,18.7,3.1,30.33,NNW,327,17.3,17.3,50,0.00,BKN,OVC,0.00,WeatherDisplay:10.37,2013-02-09 06:21:00,
2013-02-09 01:26:00,18.6,3.0,30.33,NW,326,12.7,12.7,50,0.00,BKN,OVC,0.00,WeatherDisplay:10.37,2013-02-09 06:26:00,
2013-02-09 01:31:00,18.5,2.9,30.33,NW,326,13.8,13.8,50,0.00,BKN,OVC,0.00,WeatherDisplay:10.37,2013-02-09 06:31:00,
2013-02-09 01:36:00,18.5,2.9,30.33,NW,320,9.2,9.2,50,0.00,BKN,OVC,0.00,WeatherDisplay:10.37,2013-02-09 06:36:00,
2013-02-09 01:41:00,18.4,2.8,30.33,NW,323,13.8,13.8,50,0.00,BKN,OVC,0.00,WeatherDisplay:10.37,2013-02-09 06:41:00,
2013-02-09 01:46:00,18.3,2.7,30.33,NNW,328,12.7,12.7,50,0.00,BKN,OVC,0.00,WeatherDisplay:10.37,2013-02-09 06:46:00,
2013-02-09 01:51:00,18.4,2.8,30.33,North,352,11.5,11.5,50,0.00,BKN,OVC,0.00,WeatherDisplay:10.37,2013-02-09 06:51:00,
2013-02-09 01:56:00,18.4,2.8,30.33,NW,322,15.0,15.0,50,0.00,BKN,OVC,0.00,WeatherDisplay:10.37,2013-02-09 06:56:00,
2013-02-09 02:01:00,18.4,2.8,30.33,NW,321,13.8,13.8,50,0.00,BKN,OVC,0.00,WeatherDisplay:10.37,2013-02-09 07:01:00,
2013-02-09 02:06:00,18.3,2.7,30.33,NW,321,16.1,16.1,50,0.00,BKN,OVC,0.00,WeatherDisplay:10.37,2013-02-09 07:06:00,
2013-02-09 02:11:00,18.3,2.7,30.33,NW,319,17.3,17.3,50,0.00,BKN,OVC,0.00,WeatherDisplay:10.37,2013-02-09 07:11:00,
2013-02-09 02:16:00,18.1,2.6,30.33,NNW,327,16.1,16.1,50,0.00,BKN,OVC,0.00,WeatherDisplay:10.37,2013-02-09 07:16:00,
2013-02-09 02:21:00,18.3,2.7,30.33,NNW,330,13.8,13.8,50,0.00,BKN,OVC,0.00,WeatherDisplay:10.37,2013-02-09 07:21:00,
2013-02-09 02:26:00,18.2,2.6,30.33,NNW,327,12.7,12.7,50,0.00,BKN,OVC,0.00,WeatherDisplay:10.37,2013-02-09 07:26:00,
2013-02-09 02:31:00,18.2,2.6,30.33,NW,320,15.0,15.0,50,0.00,BKN,OVC,0.00,WeatherDisplay:10.37,2013-02-09 07:31:00,
2013-02-09 02:36:00,18.0,2.5,30.33,NW,320,12.7,12.7,50,0.00,BKN,OVC,0.00,WeatherDisplay:10.37,2013-02-09 07:36:00,
2013-02-09 02:41:00,17.9,2.4,30.33,NW,322,12.7,12.7,50,0.00,BKN,OVC,0.00,WeatherDisplay:10.37,2013-02-09 07:41:00,
2013-02-09 02:46:00,17.9,2.4,30.33,NNW,336,10.4,10.4,50,0.00,BKN,OVC,0.00,WeatherDisplay:10.37,2013-02-09 07:46:00,
2013-02-09 02:51:00,17.8,2.3,30.33,NW,323,10.4,10.4,50,0.00,BKN,OVC,0.00,WeatherDisplay:10.37,2013-02-09 07:51:00,
2013-02-09 02:56:00,17.5,2.0,30.33,NW,325,11.5,11.5,50,0.00,BKN,OVC,0.00,WeatherDisplay:10.37,2013-02-09 07:56:00,
2013-02-09 03:01:00,17.7,2.2,30.33,NW,323,13.8,13.8,50,0.00,BKN,OVC,0.00,WeatherDisplay:10.37,2013-02-09 08:01:00,
2013-02-09 03:06:00,17.6,2.1,30.33,NW,323,11.5,11.5,50,0.00,BKN,OVC,0.00,WeatherDisplay:10.37,2013-02-09 08:06:00,
2013-02-09 03:11:00,17.4,1.9,30.33,NNW,336,13.8,13.8,50,0.00,BKN,OVC,0.00,WeatherDisplay:10.37,2013-02-09 08:11:00,
2013-02-09 03:16:00,17.2,1.7,30.33,NNW,339,11.5,11.5,50,0.00,BKN,OVC,0.00,WeatherDisplay:10.37,2013-02-09 08:16:00,
2013-02-09 03:21:00,17.2,1.7,30.33,NNW,335,12.7,12.7,50,0.00,BKN,OVC,0.00,WeatherDisplay:10.37,2013-02-09 08:21:00,
2013-02-09 03:26:00,17.2,1.7,30.33,NNW,335,12.0,12.0,50,0.00,BKN,OVC,0.00,WeatherDisplay:10.37,2013-02-09 08:26:00,
2013-02-09 03:31:00,17.1,1.6,30.33,NNW,332,11.5,11.5,50,0.00,BKN,OVC,0.00,WeatherDisplay:10.37,2013-02-09 08:31:00,
2013-02-09 03:36:00,17.2,1.7,30.33,NW,324,13.8,13.8,50,0.00,BKN,OVC,0.00,WeatherDisplay:10.37,2013-02-09 08:36:00,
2013-02-09 03:41:00,16.9,1.4,30.33,NW,325,10.4,10.4,50,0.00,BKN,OVC,0.00,WeatherDisplay:10.37,2013-02-09 08:41:00,
2013-02-09 03:46:00,16.8,1.3,30.33,NW,322,15.0,15.0,50,0.00,BKN,OVC,0.00,WeatherDisplay:10.37,2013-02-09 08:46:00,
2013-02-09 03:51:00,16.9,1.4,30.33,NW,320,10.4,10.4,50,0.00,BKN,OVC,0.00,WeatherDisplay:10.37,2013-02-09 08:51:00,
2013-02-09 03:56:00,16.9,1.4,30.33,NW,320,9.2,9.2,50,0.00,BKN,OVC,0.00,WeatherDisplay:10.37,2013-02-09 08:56:00,
2013-02-09 04:01:00,17.0,1.5,30.33,NW,320,9.2,9.2,50,0.00,BKN,OVC,0.00,WeatherDisplay:10.37,2013-02-09 09:01:00,
2013-02-09 04:06:00,16.9,1.4,30.33,NW,322,11.5,11.5,50,0.00,BKN,OVC,0.00,WeatherDisplay:10.37,2013-02-09 09:06:00,
2013-02-09 04:11:00,16.5,1.1,30.33,NNW,328,11.5,11.5,50,0.00,BKN,OVC,0.00,WeatherDisplay:10.37,2013-02-09 09:11:00,
2013-02-09 04:16:00,16.7,1.3,30.33,NW,320,11.5,11.5,50,0.00,BKN,OVC,0.00,WeatherDisplay:10.37,2013-02-09 09:16:00,
2013-02-09 04:21:00,16.8,1.3,30.33,NW,319,10.4,10.4,50,0.00,BKN,OVC,0.00,WeatherDisplay:10.37,2013-02-09 09:21:00,
2013-02-09 04:26:00,16.6,1.2,30.33,NW,321,8.0,8.0,50,0.00,BKN,OVC,0.00,WeatherDisplay:10.37,2013-02-09 09:26:00,
2013-02-09 04:31:00,16.6,1.2,30.33,NW,322,8.1,8.1,50,0.00,BKN,OVC,0.00,WeatherDisplay:10.37,2013-02-09 09:31:00,
2013-02-09 04:36:00,16.6,1.2,30.33,NW,322,8.1,8.1,50,0.00,BKN,OVC,0.00,WeatherDisplay:10.37,2013-02-09 09:36:00,
2013-02-09 04:41:00,16.3,0.9,30.33,NNW,327,11.5,11.5,50,0.00,BKN,OVC,0.00,WeatherDisplay:10.37,2013-02-09 09:41:00,
2013-02-09 04:46:00,16.1,0.7,30.33,NNW,329,10.4,10.4,50,0.00,BKN,OVC,0.00,WeatherDisplay:10.37,2013-02-09 09:46:00,
2013-02-09 04:51:00,16.4,1.0,30.33,NW,326,11.5,11.5,50,0.00,BKN,OVC,0.00,WeatherDisplay:10.37,2013-02-09 09:51:00,
2013-02-09 04:56:00,16.2,0.8,30.33,NW,324,11.5,11.5,50,0.00,BKN,OVC,0.00,WeatherDisplay:10.37,2013-02-09 09:56:00,
2013-02-09 05:01:00,16.2,0.8,30.33,NW,326,11.5,11.5,50,0.00,BKN,OVC,0.00,WeatherDisplay:10.37,2013-02-09 10:01:00,
2013-02-09 05:06:00,16.4,1.0,30.33,NW,325,10.4,10.4,50,0.00,BKN,OVC,0.00,WeatherDisplay:10.37,2013-02-09 10:06:00,
2013-02-09 05:11:00,16.3,0.9,30.33,NW,322,9.2,9.2,50,0.00,BKN,OVC,0.00,WeatherDisplay:10.37,2013-02-09 10:11:00,
2013-02-09 05:16:00,16.2,0.8,30.33,NW,322,9.2,9.2,50,0.00,BKN,OVC,0.00,WeatherDisplay:10.37,2013-02-09 10:16:00,
2013-02-09 05:21:00,16.3,0.9,30.33,NW,322,10.4,10.4,50,0.00,BKN,OVC,0.00,WeatherDisplay:10.37,2013-02-09 10:21:00,
2013-02-09 05:26:00,16.5,1.1,30.33,NW,322,5.8,5.8,50,0.00,BKN,OVC,0.00,WeatherDisplay:10.37,2013-02-09 10:26:00,
2013-02-09 05:31:00,16.0,0.6,30.33,NW,322,3.5,3.5,50,0.00,BKN,OVC,0.00,WeatherDisplay:10.37,2013-02-09 10:31:00,
2013-02-09 05:36:00,16.1,0.7,30.33,NW,322,2.3,2.3,50,0.00,BKN,OVC,0.00,WeatherDisplay:10.37,2013-02-09 10:36:00,
2013-02-09 05:41:00,16.0,0.6,30.33,NW,322,5.0,5.0,50,0.00,BKN,OVC,0.00,WeatherDisplay:10.37,2013-02-09 10:41:00,
2013-02-09 05:46:00,15.4,0.0,30.33,NNW,328,9.2,9.2,50,0.00,BKN,OVC,0.00,WeatherDisplay:10.37,2013-02-09 10:46:00,
2013-02-09 05:51:00,15.6,0.2,30.33,NNW,328,5.8,5.8,50,0.00,BKN,OVC,0.00,WeatherDisplay:10.37,2013-02-09 10:51:00,
2013-02-09 05:56:00,15.0,-0.3,30.33,NNW,328,5.8,5.8,50,0.00,BKN,OVC,0.00,WeatherDisplay:10.37,2013-02-09 10:56:00,
2013-02-09 08:56:00,23.8,7.8,30.33,NW,322,11.0,0.0,50,0.00,CLR,OVC,0.00,WeatherDisplay:10.37,2013-02-09 13:56:00,
2013-02-09 09:01:00,24.3,8.3,30.33,NW,315,11.5,11.5,50,0.00,BKN,OVC,0.00,WeatherDisplay:10.37,2013-02-09 14:01:00,
2013-02-09 09:06:00,24.7,8.7,30.33,NW,313,12.7,12.7,50,0.00,BKN,OVC,0.00,WeatherDisplay:10.37,2013-02-09 14:06:00,
2013-02-09 09:11:00,25.5,9.4,30.33,NW,313,15.0,15.0,50,0.00,BKN,OVC,0.00,WeatherDisplay:10.37,2013-02-09 14:11:00,
2013-02-09 09:16:00,26.3,10.2,30.33,NW,320,12.0,12.0,50,0.00,BKN,OVC,0.00,WeatherDisplay:10.37,2013-02-09 14:16:00,
2013-02-09 09:21:00,26.9,10.7,30.33,NNW,328,11.5,11.5,50,0.00,BKN,OVC,0.00,WeatherDisplay:10.37,2013-02-09 14:21:00,
2013-02-09 09:26:00,26.4,10.3,30.33,NW,322,18.4,18.4,50,0.00,BKN,OVC,0.00,WeatherDisplay:10.37,2013-02-09 14:26:00,
2013-02-09 09:31:00,26.6,10.4,30.33,NW,319,13.8,13.8,50,0.00,BKN,OVC,0.00,WeatherDisplay:10.37,2013-02-09 14:31:00,
2013-02-09 09:36:00,26.4,10.3,30.33,NW,320,18.4,18.4,50,0.00,BKN,OVC,0.00,WeatherDisplay:10.37,2013-02-09 14:36:00,
2013-02-09 09:41:00,28.2,11.9,30.33,NW,324,11.5,11.5,50,0.00,BKN,OVC,0.00,WeatherDisplay:10.37,2013-02-09 14:41:00,
2013-02-09 09:46:00,28.5,12.2,30.33,NW,318,16.1,16.1,50,0.00,BKN,OVC,0.00,WeatherDisplay:10.37,2013-02-09 14:46:00,
2013-02-09 09:51:00,28.9,12.6,30.33,NW,324,15.0,15.0,50,0.00,BKN,OVC,0.00,WeatherDisplay:10.37,2013-02-09 14:51:00,
2013-02-09 09:56:00,28.9,12.6,30.33,NNW,328,17.0,17.0,50,0.00,BKN,OVC,0.00,WeatherDisplay:10.37,2013-02-09 14:56:00,
2013-02-09 10:01:00,29.4,13.0,30.33,NW,323,12.7,12.7,50,0.00,BKN,OVC,0.00,WeatherDisplay:10.37,2013-02-09 15:01:00,
2013-02-09 10:06:00,29.1,12.8,30.33,NW,325,16.1,16.1,50,0.00,BKN,OVC,0.00,WeatherDisplay:10.37,2013-02-09 15:06:00,
2013-02-09 10:11:00,29.5,13.1,30.33,NW,325,17.0,17.0,50,0.00,BKN,OVC,0.00,WeatherDisplay:10.37,2013-02-09 15:11:00,
2013-02-09 10:16:00,29.1,12.8,30.33,NNW,341,13.8,13.8,50,0.00,BKN,OVC,0.00,WeatherDisplay:10.37,2013-02-09 15:16:00,
2013-02-09 10:21:00,29.8,13.4,30.33,NNW,328,12.7,12.7,50,0.00,BKN,OVC,0.00,WeatherDisplay:10.37,2013-02-09 15:21:00,
2013-02-09 10:26:00,30.2,13.8,30.33,NNW,327,12.7,12.7,50,0.00,BKN,OVC,0.00,WeatherDisplay:10.37,2013-02-09 15:26:00,
2013-02-09 10:31:00,31.2,14.7,30.33,NW,319,11.5,11.5,50,0.00,BKN,OVC,0.00,WeatherDisplay:10.37,2013-02-09 15:31:00,
2013-02-09 10:36:00,31.3,14.8,30.33,NW,320,10.4,10.4,50,0.00,BKN,OVC,0.00,WeatherDisplay:10.37,2013-02-09 15:36:00,
2013-02-09 10:41:00,32.1,15.5,30.33,NW,319,9.2,9.2,50,0.00,BKN,OVC,0.00,WeatherDisplay:10.37,2013-02-09 15:41:00,
2013-02-09 10:46:00,32.1,15.5,30.33,NW,318,10.4,10.4,50,0.00,BKN,OVC,0.00,WeatherDisplay:10.37,2013-02-09 15:46:00,
2013-02-09 10:51:00,31.4,14.9,30.33,NNW,330,11.5,11.5,50,0.00,BKN,OVC,0.00,WeatherDisplay:10.37,2013-02-09 15:51:00,
2013-02-09 10:56:00,31.5,15.0,30.33,NNW,335,9.2,9.2,50,0.00,BKN,OVC,0.00,WeatherDisplay:10.37,2013-02-09 15:56:00,
2013-02-09 11:01:00,31.6,15.1,30.33,NW,316,11.5,11.5,50,0.00,BKN,OVC,0.00,WeatherDisplay:10.37,2013-02-09 16:01:00,
2013-02-09 11:06:00,31.3,14.8,30.33,NW,325,13.8,13.8,50,0.00,BKN,OVC,0.00,WeatherDisplay:10.37,2013-02-09 16:06:00,
2013-02-09 11:11:00,30.8,14.3,30.33,NW,322,15.0,15.0,50,0.00,BKN,OVC,0.00,WeatherDisplay:10.37,2013-02-09 16:11:00,
2013-02-09 11:16:00,30.6,14.1,30.33,NNW,327,13.8,13.8,50,0.00,BKN,OVC,0.00,WeatherDisplay:10.37,2013-02-09 16:16:00,
2013-02-09 11:21:00,31.8,15.3,30.33,NW,321,13.8,13.8,50,0.00,BKN,OVC,0.00,WeatherDisplay:10.37,2013-02-09 16:21:00,
2013-02-09 11:26:00,32.0,15.4,30.33,NW,318,10.4,10.4,50,0.00,BKN,OVC,0.00,WeatherDisplay:10.37,2013-02-09 16:26:00,
2013-02-09 11:31:00,31.8,15.3,30.33,NW,324,10.4,10.4,50,0.00,BKN,OVC,0.00,WeatherDisplay:10.37,2013-02-09 16:31:00,
2013-02-09 11:36:00,32.3,15.7,30.33,NW,315,10.4,10.4,50,0.00,BKN,OVC,0.00,WeatherDisplay:10.37,2013-02-09 16:36:00,
2013-02-09 11:41:00,32.3,15.7,30.33,NW,314,9.2,9.2,50,0.00,BKN,OVC,0.00,WeatherDisplay:10.37,2013-02-09 16:41:00,
2013-02-09 11:46:00,32.2,15.6,30.33,NW,312,6.9,6.9,50,0.00,BKN,OVC,0.00,WeatherDisplay:10.37,2013-02-09 16:46:00,
2013-02-09 11:51:00,32.4,15.8,30.33,NW,315,9.2,9.2,50,0.00,BKN,OVC,0.00,WeatherDisplay:10.37,2013-02-09 16:51:00,
2013-02-09 11:56:00,32.5,15.9,30.33,NW,316,16.1,16.1,50,0.00,BKN,OVC,0.00,WeatherDisplay:10.37,2013-02-09 16:56:00,
2013-02-09 12:01:00,33.2,16.5,30.33,NW,320,10.4,10.4,50,0.00,BKN,OVC,0.00,WeatherDisplay:10.37,2013-02-09 17:01:00,
2013-02-09 12:06:00,33.7,17.0,30.33,NW,320,11.5,11.5,50,0.00,BKN,OVC,0.00,WeatherDisplay:10.37,2013-02-09 17:06:00,
2013-02-09 12:11:00,33.7,17.0,30.33,NW,318,6.9,6.9,50,0.00,BKN,OVC,0.00,WeatherDisplay:10.37,2013-02-09 17:11:00,
2013-02-09 12:16:00,35.4,18.6,30.33,NW,318,2.3,2.3,50,0.00,BKN,OVC,0.00,WeatherDisplay:10.37,2013-02-09 17:16:00,
2013-02-09 12:21:00,35.5,18.7,30.33,NW,318,6.9,6.9,50,0.00,BKN,OVC,0.00,WeatherDisplay:10.37,2013-02-09 17:21:00,
2013-02-09 12:26:00,34.5,17.8,30.33,NW,319,8.1,8.1,50,0.00,BKN,OVC,0.00,WeatherDisplay:10.37,2013-02-09 17:26:00,
2013-02-09 12:31:00,34.7,17.9,30.33,NW,313,9.2,9.2,50,0.00,BKN,OVC,0.00,WeatherDisplay:10.37,2013-02-09 17:31:00,
2013-02-09 12:36:00,34.4,17.7,30.33,NW,321,4.6,4.6,50,0.00,BKN,OVC,0.00,WeatherDisplay:10.37,2013-02-09 17:36:00,
2013-02-09 12:41:00,35.3,18.5,30.33,NW,321,3.5,3.5,50,0.00,BKN,OVC,0.00,WeatherDisplay:10.37,2013-02-09 17:41:00,
2013-02-09 12:46:00,35.6,18.8,30.33,NW,321,9.2,9.2,50,0.00,BKN,OVC,0.00,WeatherDisplay:10.37,2013-02-09 17:46:00,
2013-02-09 12:51:00,35.9,19.0,30.33,NW,321,5.0,5.0,50,0.00,BKN,OVC,0.00,WeatherDisplay:10.37,2013-02-09 17:51:00,
2013-02-09 12:56:00,36.1,19.2,30.33,NW,321,6.0,6.0,50,0.00,BKN,OVC,0.00,WeatherDisplay:10.37,2013-02-09 17:56:00,
2013-02-09 13:01:00,35.9,19.0,30.33,NW,321,5.8,5.8,50,0.00,BKN,OVC,0.00,WeatherDisplay:10.37,2013-02-09 18:01:00,
2013-02-09 13:06:00,35.1,18.3,30.33,NW,319,11.5,11.5,50,0.00,BKN,OVC,0.00,WeatherDisplay:10.37,2013-02-09 18:06:00,
2013-02-09 13:11:00,35.4,18.6,30.33,NW,319,8.1,8.1,50,0.00,BKN,OVC,0.00,WeatherDisplay:10.37,2013-02-09 18:11:00,
2013-02-09 13:16:00,36.7,19.8,30.33,NW,319,6.9,6.9,50,0.00,BKN,OVC,0.00,WeatherDisplay:10.37,2013-02-09 18:16:00,
2013-02-09 13:21:00,35.7,18.9,30.33,NW,316,4.6,4.6,50,0.00,BKN,OVC,0.00,WeatherDisplay:10.37,2013-02-09 18:21:00,
2013-02-09 13:26:00,36.5,19.6,30.33,NW,316,3.5,3.5,50,0.00,BKN,OVC,0.00,WeatherDisplay:10.37,2013-02-09 18:26:00,
2013-02-09 13:31:00,36.7,19.8,30.33,NW,317,10.4,10.4,50,0.00,BKN,OVC,0.00,WeatherDisplay:10.37,2013-02-09 18:31:00,
2013-02-09 13:36:00,35.6,18.8,30.33,NW,316,5.8,5.8,50,0.00,BKN,OVC,0.00,WeatherDisplay:10.37,2013-02-09 18:36:00,
2013-02-09 13:41:00,35.7,18.9,30.33,NW,316,9.2,9.2,50,0.00,BKN,OVC,0.00,WeatherDisplay:10.37,2013-02-09 18:41:00,
2013-02-09 13:46:00,36.2,19.3,30.33,NW,317,3.5,3.5,50,0.00,BKN,OVC,0.00,WeatherDisplay:10.37,2013-02-09 18:46:00,
2013-02-09 13:51:00,36.2,19.3,30.33,NW,314,5.8,5.8,50,0.00,BKN,OVC,0.00,WeatherDisplay:10.37,2013-02-09 18:51:00,
2013-02-09 13:56:00,36.3,19.4,30.33,NW,314,4.6,4.6,50,0.00,BKN,OVC,0.00,WeatherDisplay:10.37,2013-02-09 18:56:00,
2013-02-09 14:01:00,36.6,19.7,30.33,NW,314,5.8,5.8,50,0.00,BKN,OVC,0.00,WeatherDisplay:10.37,2013-02-09 19:01:00,
2013-02-09 14:06:00,36.4,19.5,30.33,NW,314,3.5,3.5,50,0.00,BKN,OVC,0.00,WeatherDisplay:10.37,2013-02-09 19:06:00,
2013-02-09 14:11:00,35.1,18.3,30.33,NW,315,3.5,3.5,50,0.00,BKN,OVC,0.00,WeatherDisplay:10.37,2013-02-09 19:11:00,
2013-02-09 14:16:00,34.2,17.5,30.33,NW,316,6.9,6.9,50,0.00,BKN,OVC,0.00,WeatherDisplay:10.37,2013-02-09 19:16:00,
2013-02-09 14:21:00,33.8,17.1,30.33,NW,316,3.5,3.5,50,0.00,BKN,OVC,0.00,WeatherDisplay:10.37,2013-02-09 19:21:00,
2013-02-09 14:26:00,34.0,17.3,30.33,NW,316,5.8,5.8,50,0.00,BKN,OVC,0.00,WeatherDisplay:10.37,2013-02-09 19:26:00,
2013-02-09 14:31:00,34.1,17.4,30.33,NW,317,7.0,7.0,50,0.00,BKN,OVC,0.00,WeatherDisplay:10.37,2013-02-09 19:31:00,
2013-02-09 14:36:00,34.2,17.5,30.33,NW,317,8.1,8.1,50,0.00,BKN,OVC,0.00,WeatherDisplay:10.37,2013-02-09 19:36:00,
2013-02-09 14:41:00,34.3,17.6,30.33,NW,317,10.4,10.4,50,0.00,BKN,OVC,0.00,WeatherDisplay:10.37,2013-02-09 19:41:00,
2013-02-09 14:46:00,34.6,17.8,30.33,NW,317,5.0,5.0,50,0.00,BKN,OVC,0.00,WeatherDisplay:10.37,2013-02-09 19:46:00,
2013-02-09 14:51:00,34.3,17.6,30.33,NW,317,5.8,5.8,50,0.00,BKN,OVC,0.00,WeatherDisplay:10.37,2013-02-09 19:51:00,
2013-02-09 14:56:00,33.7,17.0,30.33,NW,318,7.0,7.0,50,0.00,BKN,OVC,0.00,WeatherDisplay:10.37,2013-02-09 19:56:00,
2013-02-09 15:01:00,33.1,16.5,30.33,NW,319,5.8,5.8,50,0.00,BKN,OVC,0.00,WeatherDisplay:10.37,2013-02-09 20:01:00,
2013-02-09 15:06:00,33.7,17.0,30.33,NW,319,5.8,5.8,50,0.00,BKN,OVC,0.00,WeatherDisplay:10.37,2013-02-09 20:06:00,
2013-02-09 15:11:00,33.8,17.1,30.33,NW,319,6.9,6.9,50,0.00,BKN,OVC,0.00,WeatherDisplay:10.37,2013-02-09 20:11:00,
2013-02-09 15:16:00,33.5,16.8,30.33,NW,318,6.9,6.9,50,0.00,BKN,OVC,0.00,WeatherDisplay:10.37,2013-02-09 20:16:00,
2013-02-09 15:21:00,33.2,16.5,30.33,NW,318,5.8,5.8,50,0.00,BKN,OVC,0.00,WeatherDisplay:10.37,2013-02-09 20:21:00,
2013-02-09 15:26:00,33.2,16.5,30.33,NW,317,3.5,3.5,50,0.00,BKN,OVC,0.00,WeatherDisplay:10.37,2013-02-09 20:26:00,
2013-02-09 15:31:00,33.0,16.4,30.33,NW,316,6.9,6.9,50,0.00,BKN,OVC,0.00,WeatherDisplay:10.37,2013-02-09 20:31:00,
2013-02-09 15:36:00,32.6,16.0,30.33,NW,316,9.2,9.2,50,0.00,BKN,OVC,0.00,WeatherDisplay:10.37,2013-02-09 20:36:00,
2013-02-09 15:41:00,32.1,15.5,30.33,NW,317,6.9,6.9,50,0.00,BKN,OVC,0.00,WeatherDisplay:10.37,2013-02-09 20:41:00,
2013-02-09 15:46:00,31.8,15.3,30.33,NW,314,5.8,5.8,50,0.00,BKN,OVC,0.00,WeatherDisplay:10.37,2013-02-09 20:46:00,
2013-02-09 15:51:00,32.0,15.4,30.33,NW,314,6.9,6.9,50,0.00,BKN,OVC,0.00,WeatherDisplay:10.37,2013-02-09 20:51:00,
2013-02-09 15:56:00,31.6,15.1,30.33,NW,312,8.1,8.1,50,0.00,BKN,OVC,0.00,WeatherDisplay:10.37,2013-02-09 20:56:00,
2013-02-09 16:01:00,31.5,15.0,30.33,NW,313,8.1,8.1,50,0.00,BKN,OVC,0.00,WeatherDisplay:10.37,2013-02-09 21:01:00,
2013-02-09 16:06:00,31.4,14.9,30.33,NW,313,8.1,8.1,50,0.00,BKN,OVC,0.00,WeatherDisplay:10.37,2013-02-09 21:06:00,
2013-02-09 16:11:00,31.2,14.7,30.33,NW,313,8.1,8.1,50,0.00,BKN,OVC,0.00,WeatherDisplay:10.37,2013-02-09 21:11:00,
2013-02-09 16:16:00,31.2,14.7,30.33,NW,313,4.6,4.6,50,0.00,BKN,OVC,0.00,WeatherDisplay:10.37,2013-02-09 21:16:00,
2013-02-09 16:21:00,30.5,14.0,30.33,NW,312,9.2,9.2,50,0.00,BKN,OVC,0.00,WeatherDisplay:10.37,2013-02-09 21:21:00,
2013-02-09 16:26:00,30.6,14.1,30.33,NW,312,7.0,7.0,50,0.00,BKN,OVC,0.00,WeatherDisplay:10.37,2013-02-09 21:26:00,
2013-02-09 16:31:00,30.2,13.8,30.33,NW,313,6.9,6.9,50,0.00,BKN,OVC,0.00,WeatherDisplay:10.37,2013-02-09 21:31:00,
2013-02-09 16:36:00,30.2,13.8,30.33,NW,313,5.8,5.8,50,0.00,BKN,OVC,0.00,WeatherDisplay:10.37,2013-02-09 21:36:00,
2013-02-09 16:41:00,29.8,13.4,30.33,NW,313,8.1,8.1,50,0.00,BKN,OVC,0.00,WeatherDisplay:10.37,2013-02-09 21:41:00,
2013-02-09 16:46:00,29.6,13.2,30.33,NW,312,8.1,8.1,50,0.00,BKN,OVC,0.00,WeatherDisplay:10.37,2013-02-09 21:46:00,
2013-02-09 16:51:00,29.6,13.2,30.33,NW,312,6.0,6.0,50,0.00,BKN,OVC,0.00,WeatherDisplay:10.37,2013-02-09 21:51:00,
2013-02-09 16:56:00,29.1,12.8,30.33,NW,312,8.1,8.1,50,0.00,BKN,OVC,0.00,WeatherDisplay:10.37,2013-02-09 21:56:00,
2013-02-09 17:01:00,29.1,12.8,30.33,NW,312,5.8,5.8,50,0.00,BKN,OVC,0.00,WeatherDisplay:10.37,2013-02-09 22:01:00,
2013-02-09 17:06:00,28.9,12.6,30.33,NW,312,6.9,6.9,50,0.00,BKN,OVC,0.00,WeatherDisplay:10.37,2013-02-09 22:06:00,
2013-02-09 17:11:00,28.9,12.6,30.33,NW,312,6.0,6.0,50,0.00,BKN,OVC,0.00,WeatherDisplay:10.37,2013-02-09 22:11:00,
2013-02-09 17:16:00,28.7,12.4,30.33,NW,312,6.9,6.9,50,0.00,BKN,OVC,0.00,WeatherDisplay:10.37,2013-02-09 22:16:00,
2013-02-09 17:21:00,28.6,12.3,30.33,NW,312,7.0,7.0,50,0.00,BKN,OVC,0.00,WeatherDisplay:10.37,2013-02-09 22:21:00,
2013-02-09 17:26:00,28.4,12.1,30.33,NW,312,5.8,5.8,50,0.00,BKN,OVC,0.00,WeatherDisplay:10.37,2013-02-09 22:26:00,
2013-02-09 17:31:00,28.3,12.0,30.33,NW,312,3.5,3.5,50,0.00,BKN,OVC,0.00,WeatherDisplay:10.37,2013-02-09 22:31:00,
2013-02-09 17:36:00,28.4,12.1,30.33,NW,312,2.3,2.3,50,0.00,BKN,OVC,0.00,WeatherDisplay:10.37,2013-02-09 22:36:00,
2013-02-09 17:41:00,28.1,11.8,30.33,NW,312,3.5,3.5,50,0.00,BKN,OVC,0.00,WeatherDisplay:10.37,2013-02-09 22:41:00,
2013-02-09 17:46:00,28.1,11.8,30.33,NW,312,3.5,3.5,50,0.00,BKN,OVC,0.00,WeatherDisplay:10.37,2013-02-09 22:46:00,
2013-02-09 17:51:00,28.0,11.7,30.33,NW,312,3.5,3.5,50,0.00,BKN,OVC,0.00,WeatherDisplay:10.37,2013-02-09 22:51:00,
2013-02-09 17:56:00,27.8,11.5,30.33,NW,312,3.5,3.5,50,0.00,BKN,OVC,0.00,WeatherDisplay:10.37,2013-02-09 22:56:00,
2013-02-09 18:22:00,27.5,11.3,30.33,NW,312,3.5,0.0,50,0.00,CLR,OVC,0.00,WeatherDisplay:10.37,2013-02-09 23:22:00,
2013-02-09 18:27:00,27.5,11.3,30.33,NW,312,2.3,2.3,50,0.00,BKN,OVC,0.00,WeatherDisplay:10.37,2013-02-09 23:27:00,
2013-02-09 18:32:00,27.2,11.0,30.33,NW,312,3.5,3.5,50,0.00,BKN,OVC,0.00,WeatherDisplay:10.37,2013-02-09 23:32:00,
2013-02-09 18:37:00,27.0,10.8,30.33,NW,312,3.5,3.5,50,0.00,BKN,OVC,0.00,WeatherDisplay:10.37,2013-02-09 23:37:00,
2013-02-09 18:42:00,27.0,10.8,30.33,NW,312,3.5,3.5,50,0.00,BKN,OVC,0.00,WeatherDisplay:10.37,2013-02-09 23:42:00,
2013-02-09 18:47:00,27.0,10.8,30.33,NW,312,3.5,3.5,50,0.00,BKN,OVC,0.00,WeatherDisplay:10.37,2013-02-09 23:47:00,
2013-02-09 18:52:00,26.9,10.7,30.33,NW,312,3.5,3.5,50,0.00,BKN,OVC,0.00,WeatherDisplay:10.37,2013-02-09 23:52:00,
2013-02-09 18:57:00,26.7,10.5,30.33,NW,312,3.5,3.5,50,0.00,BKN,OVC,0.00,WeatherDisplay:10.37,2013-02-09 23:57:00,
2013-02-09 19:02:00,26.6,10.4,30.33,NW,312,3.5,3.5,50,0.00,BKN,OVC,0.00,WeatherDisplay:10.37,2013-02-10 00:02:00,
2013-02-09 19:07:00,26.4,10.3,30.33,NW,312,5.8,5.8,50,0.00,BKN,OVC,0.00,WeatherDisplay:10.37,2013-02-10 00:07:00,
2013-02-09 19:12:00,26.5,10.3,30.33,NW,312,4.6,4.6,50,0.00,BKN,OVC,0.00,WeatherDisplay:10.37,2013-02-10 00:12:00,
2013-02-09 19:17:00,26.3,10.2,30.33,NW,312,3.5,3.5,50,0.00,BKN,OVC,0.00,WeatherDisplay:10.37,2013-02-10 00:17:00,
2013-02-09 19:22:00,26.1,10.0,30.33,NW,312,5.0,5.0,50,0.00,BKN,OVC,0.00,WeatherDisplay:10.37,2013-02-10 00:22:00,
2013-02-09 19:27:00,26.1,10.0,30.33,NW,312,4.6,4.6,50,0.00,BKN,OVC,0.00,WeatherDisplay:10.37,2013-02-10 00:27:00,
2013-02-09 19:32:00,26.0,9.9,30.33,NW,312,3.5,3.5,50,0.00,BKN,OVC,0.00,WeatherDisplay:10.37,2013-02-10 00:32:00,
2013-02-09 19:37:00,26.1,10.0,30.33,NW,312,5.0,5.0,50,0.00,BKN,OVC,0.00,WeatherDisplay:10.37,2013-02-10 00:37:00,
2013-02-09 19:42:00,26.1,10.0,30.33,NW,312,3.5,3.5,50,0.00,BKN,OVC,0.00,WeatherDisplay:10.37,2013-02-10 00:42:00,
2013-02-09 19:47:00,26.4,10.3,30.33,NW,312,3.5,3.5,50,0.00,BKN,OVC,0.00,WeatherDisplay:10.37,2013-02-10 00:47:00,
2013-02-09 19:52:00,26.1,10.0,30.33,NW,312,4.0,4.0,50,0.00,BKN,OVC,0.00,WeatherDisplay:10.37,2013-02-10 00:52:00,
2013-02-09 19:57:00,25.9,9.8,30.33,NW,312,5.8,5.8,50,0.00,BKN,OVC,0.00,WeatherDisplay:10.37,2013-02-10 00:57:00,
2013-02-09 20:02:00,25.6,9.5,30.33,NW,312,5.8,5.8,50,0.00,BKN,OVC,0.00,WeatherDisplay:10.37,2013-02-10 01:02:00,
2013-02-09 20:07:00,25.4,9.3,30.33,NW,312,6.0,6.0,50,0.00,BKN,OVC,0.00,WeatherDisplay:10.37,2013-02-10 01:07:00,
2013-02-09 20:12:00,25.3,9.2,30.33,NW,312,6.9,6.9,50,0.00,BKN,OVC,0.00,WeatherDisplay:10.37,2013-02-10 01:12:00,
2013-02-09 20:17:00,25.4,9.3,30.33,NW,312,5.8,5.8,50,0.00,BKN,OVC,0.00,WeatherDisplay:10.37,2013-02-10 01:17:00,
2013-02-09 20:22:00,25.4,9.3,30.33,NW,312,5.8,5.8,50,0.00,BKN,OVC,0.00,WeatherDisplay:10.37,2013-02-10 01:22:00,
2013-02-09 20:27:00,25.6,9.5,30.33,NW,312,3.5,3.5,50,0.00,BKN,OVC,0.00,WeatherDisplay:10.37,2013-02-10 01:27:00,
2013-02-09 20:32:00,25.3,9.2,30.33,NW,312,4.0,4.0,50,0.00,BKN,OVC,0.00,WeatherDisplay:10.37,2013-02-10 01:32:00,
2013-02-09 20:37:00,25.3,9.2,30.33,NW,312,4.6,4.7,50,0.00,BKN,OVC,0.00,WeatherDisplay:10.37,2013-02-10 01:37:00,
2013-02-09 20:42:00,25.1,9.0,30.33,NW,312,5.8,5.8,50,0.00,BKN,OVC,0.00,WeatherDisplay:10.37,2013-02-10 01:42:00,
2013-02-09 20:47:00,25.0,9.0,30.33,NW,312,5.8,5.8,50,0.00,BKN,OVC,0.00,WeatherDisplay:10.37,2013-02-10 01:47:00,
2013-02-09 20:52:00,25.1,9.0,30.33,NW,312,5.8,5.8,50,0.00,BKN,OVC,0.00,WeatherDisplay:10.37,2013-02-10 01:52:00,
2013-02-09 20:57:00,25.0,9.0,30.33,NW,312,5.8,5.8,50,0.00,BKN,OVC,0.00,WeatherDisplay:10.37,2013-02-10 01:57:00,
2013-02-09 21:02:00,25.1,9.0,30.33,NW,312,5.0,5.0,50,0.00,BKN,OVC,0.00,WeatherDisplay:10.37,2013-02-10 02:02:00,
2013-02-09 21:07:00,24.9,8.9,30.33,NW,312,4.0,4.0,50,0.00,BKN,OVC,0.00,WeatherDisplay:10.37,2013-02-10 02:07:00,
2013-02-09 21:12:00,24.8,8.8,30.33,NW,312,4.6,4.6,50,0.00,BKN,OVC,0.00,WeatherDisplay:10.37,2013-02-10 02:12:00,
2013-02-09 21:17:00,24.6,8.6,30.33,NW,312,6.9,6.9,50,0.00,BKN,OVC,0.00,WeatherDisplay:10.37,2013-02-10 02:17:00,
2013-02-09 21:22:00,24.3,8.3,30.33,NW,312,6.9,6.9,50,0.00,BKN,OVC,0.00,WeatherDisplay:10.37,2013-02-10 02:22:00,
2013-02-09 21:27:00,24.1,8.1,30.33,NW,312,6.9,6.9,50,0.00,BKN,OVC,0.00,WeatherDisplay:10.37,2013-02-10 02:27:00,
2013-02-09 21:32:00,24.0,8.0,30.33,NW,312,5.8,5.8,50,0.00,BKN,OVC,0.00,WeatherDisplay:10.37,2013-02-10 02:32:00,
2013-02-09 21:37:00,24.2,8.2,30.33,NW,312,5.0,5.0,50,0.00,BKN,OVC,0.00,WeatherDisplay:10.37,2013-02-10 02:37:00,
2013-02-09 21:42:00,24.2,8.2,30.33,NW,312,4.6,4.6,50,0.00,BKN,OVC,0.00,WeatherDisplay:10.37,2013-02-10 02:42:00,
2013-02-09 21:48:00,23.9,7.9,30.33,NW,312,6.0,6.0,50,0.00,BKN,OVC,0.00,WeatherDisplay:10.37,2013-02-10 02:48:00,
2013-02-09 21:52:00,23.9,7.9,30.33,NW,312,5.8,5.8,50,0.00,BKN,OVC,0.00,WeatherDisplay:10.37,2013-02-10 02:52:00,
2013-02-09 21:57:00,24.2,8.2,30.33,NW,312,4.6,4.6,50,0.00,BKN,OVC,0.00,WeatherDisplay:10.37,2013-02-10 02:57:00,
2013-02-09 22:02:00,24.0,8.0,30.33,NW,312,4.6,4.6,50,0.00,BKN,OVC,0.00,WeatherDisplay:10.37,2013-02-10 03:02:00,
2013-02-09 22:07:00,23.9,7.9,30.33,NW,312,4.6,4.6,50,0.00,BKN,OVC,0.00,WeatherDisplay:10.37,2013-02-10 03:07:00,
2013-02-09 22:12:00,23.9,7.9,30.33,NW,312,4.6,4.6,50,0.00,BKN,OVC,0.00,WeatherDisplay:10.37,2013-02-10 03:12:00,
2013-02-09 22:17:00,24.2,8.2,30.33,NW,312,3.5,3.5,50,0.00,BKN,OVC,0.00,WeatherDisplay:10.37,2013-02-10 03:17:00,
2013-02-09 22:22:00,24.2,8.2,30.33,NW,312,0.0,0.0,50,0.00,BKN,OVC,0.00,WeatherDisplay:10.37,2013-02-10 03:22:00,
2013-02-09 22:27:00,24.4,8.4,30.33,NW,312,2.3,2.3,50,0.00,BKN,OVC,0.00,WeatherDisplay:10.37,2013-02-10 03:27:00,
2013-02-09 22:32:00,24.3,8.3,30.33,NW,312,2.3,2.3,50,0.00,BKN,OVC,0.00,WeatherDisplay:10.37,2013-02-10 03:32:00,
2013-02-09 22:37:00,24.0,8.0,30.33,NW,312,3.5,3.5,50,0.00,BKN,OVC,0.00,WeatherDisplay:10.37,2013-02-10 03:37:00,
2013-02-09 22:42:00,23.6,7.7,30.33,NW,312,5.8,5.8,50,0.00,BKN,OVC,0.00,WeatherDisplay:10.37,2013-02-10 03:42:00,
2013-02-09 22:47:00,23.5,7.6,30.33,NW,312,3.5,3.5,50,0.00,BKN,OVC,0.00,WeatherDisplay:10.37,2013-02-10 03:47:00,
2013-02-09 22:52:00,23.3,7.4,30.33,NW,312,6.0,6.0,50,0.00,BKN,OVC,0.00,WeatherDisplay:10.37,2013-02-10 03:52:00,
2013-02-09 22:57:00,22.7,6.8,30.33,NW,312,5.8,5.8,50,0.00,BKN,OVC,0.00,WeatherDisplay:10.37,2013-02-10 03:57:00,
2013-02-09 23:02:00,22.7,6.8,30.33,NW,312,6.0,6.0,50,0.00,BKN,OVC,0.00,WeatherDisplay:10.37,2013-02-10 04:02:00,
2013-02-09 23:07:00,22.5,6.6,30.33,NW,312,6.9,6.9,50,0.00,BKN,OVC,0.00,WeatherDisplay:10.37,2013-02-10 04:07:00,
2013-02-09 23:12:00,22.4,6.5,30.33,NW,312,6.9,6.9,50,0.00,BKN,OVC,0.00,WeatherDisplay:10.37,2013-02-10 04:12:00,
2013-02-09 23:17:00,22.3,6.4,30.33,NW,312,4.6,4.6,50,0.00,BKN,OVC,0.00,WeatherDisplay:10.37,2013-02-10 04:17:00,
2013-02-09 23:22:00,22.0,6.2,30.33,NW,312,5.8,5.8,50,0.00,BKN,OVC,0.00,WeatherDisplay:10.37,2013-02-10 04:22:00,
2013-02-09 23:27:00,22.3,6.4,30.33,NW,312,5.8,5.8,50,0.00,BKN,OVC,0.00,WeatherDisplay:10.37,2013-02-10 04:27:00,
2013-02-09 23:32:00,22.3,6.4,30.33,NW,312,5.8,5.8,50,0.00,BKN,OVC,0.00,WeatherDisplay:10.37,2013-02-10 04:32:00,
2013-02-09 23:37:00,22.2,6.4,30.33,NW,312,5.8,5.8,50,0.00,BKN,OVC,0.00,WeatherDisplay:10.37,2013-02-10 04:37:00,
2013-02-09 23:42:00,22.7,6.8,30.33,NW,312,4.6,4.6,50,0.00,BKN,OVC,0.00,WeatherDisplay:10.37,2013-02-10 04:42:00,
2013-02-09 23:47:00,23.1,7.2,30.33,NW,312,3.5,3.5,50,0.00,BKN,OVC,0.00,WeatherDisplay:10.37,2013-02-10 04:47:00,
2013-02-09 23:53:00,23.0,7.1,30.33,NW,312,3.5,3.5,50,0.00,BKN,OVC,0.00,WeatherDisplay:10.37,2013-02-10 04:53:00,
2013-02-09 23:58:00,23.0,7.1,30.33,NW,312,2.3,2.3,50,0.00,BKN,OVC,0.00,WeatherDisplay:10.37,2013-02-10 04:58:00,